Location: Samoth
(37.3328°N, 88.7876°W)
Time: 18:54:27
(UTC+00:00)

X-37B - Pass Details

Date: 03 October 2021
Orbit: 385 x 389 km, 45.0° (Epoch: 17 October)

Event Time Altitude Azimuth Distance (km) Brightness Sun altitude
Exits shadow 10:06:38 43° 33° (NNE) 556 1.6 -21.8°
Drops below altitude 10° 10:09:31 10° 96° (E) 1,409 4.4 -21.2°
Sets 10:11:38 0° 103° (ESE) 2,262 5.6 -20.8°
